Theta_e
319 324 328 328 329 331 330 328 324 324 321 315 315 316 315 321 322 319 318 317 317 318 319 318 318 320 322 321 322 322 322 323 324 323 323 323 315 312 312 312 314 315 317 318 321 325 325 323 324 325 326 326 326 327 328 327 328 329 329 330 331 332 333 334 334 334 335 336 337 337 337 337 337 338 338 339 339 339 338 337 338 338 339 339 340 340 341 340 340 340 340 340 340 340 339 339 339
324 327 329 329 330 331 330 327 322 320 316 312 316 317 317 321 319 318 318 317 318 319 318 318 318 319 320 319 319 320 321 321 320 321 320 315 313 311 310 311 313 314 316 318 320 324 324 322 323 325 325 324 325 325 324 323 324 325 326 327 327 328 329 329 330 330 331 331 333 333 334 334 334 334 335 336 337 337 336 335 336 337 337 338 339 340 340 340 340 340 339 340 340 339 339 339 339
327 328 328 329 330 330 330 326 320 316 314 312 314 320 321 320 318 318 318 318 321 319 318 318 318 318 319 319 319 319 321 319 318 319 316 313 314 311 309 310 311 313 315 317 320 323 323 321 321 323 323 321 321 322 321 320 320 320 321 322 323 324 325 325 326 326 327 327 328 328 329 329 329 330 331 332 333 333 334 333 334 334 335 336 338 339 339 339 339 339 339 340 340 339 338 338 338
326 329 329 330 330 328 328 327 323 316 312 311 312 321 321 319 319 319 320 320 320 318 318 318 317 317 318 321 319 318 320 319 318 318 317 314 313 310 308 309 309 312 313 316 319 321 321 319 319 320 320 319 319 318 318 318 317 317 318 318 319 320 321 321 322 322 323 323 324 324 324 325 325 325 326 327 327 329 330 330 331 332 333 335 336 337 337 337 338 338 338 339 339 338 337 337 337
325 328 328 330 332 327 327 327 325 317 314 314 313 319 321 319 319 319 321 319 318 318 318 318 318 317 316 318 318 318 319 319 318 317 317 314 310 308 307 307 308 311 312 314 318 320 319 317 318 318 318 317 316 316 316 316 315 314 314 314 315 316 316 317 317 318 318 319 319 320 320 321 321 321 321 322 322 323 324 325 326 327 329 331 332 334 334 334 335 335 335 335 336 336 335 336 335
325 326 325 328 329 325 325 321 318 316 317 320 317 320 320 319 319 320 320 318 317 317 316 317 318 317 316 316 316 319 318 318 318 316 316 313 309 307 306 306 307 310 311 314 317 318 316 314 315 316 315 314 312 311 311 311 310 309 308 309 309 310 311 311 312 312 312 313 314 315 315 316 316 316 317 317 317 318 318 319 320 321 323 324 326 328 330 331 332 332 333 333 333 334 334 334 334
326 325 324 325 325 322 322 317 315 317 319 322 319 320 320 319 319 319 319 318 317 316 315 316 317 316 317 317 315 317 314 316 317 315 314 312 308 304 304 305 306 308 310 313 315 314 312 311 311 311 309 308 306 305 304 304 303 303 302 302 302 303 303 304 304 304 305 305 306 307 308 308 309 309 309 310 310 311 312 313 314 316 317 318 319 321 323 324 326 327 328 329 329 330 331 331 332
325 325 325 324 325 322 319 316 317 320 320 320 319 320 319 319 319 319 319 318 317 317 316 315 316 316 317 316 316 316 312 314 315 313 311 309 307 303 302 304 305 306 308 310 311 309 306 306 306 305 304 303 303 302 302 301 301 300 300 299 299 299 299 299 299 299 299 299 300 300 301 301 301 301 301 302 302 303 304 305 307 308 309 310 312 313 315 316 318 319 321 322 322 323 325 327 328
324 324 324 322 324 322 318 317 318 321 322 320 318 319 319 320 318 319 318 318 318 317 317 316 315 316 317 316 317 315 313 313 311 310 308 307 305 302 302 303 304 304 305 306 306 304 302 302 302 302 302 301 301 301 300 300 300 299 299 298 298 298 298 298 298 298 298 298 298 297 298 297 297 298 298 298 298 298 298 299 300 301 302 303 304 305 306 308 309 311 313 314 315 316 317 318 320
323 323 323 323 321 318 315 315 317 321 322 319 318 318 318 319 318 318 318 318 318 317 317 316 315 316 316 317 317 315 315 312 309 308 307 305 303 301 302 302 303 302 301 302 302 301 299 299 300 300 300 300 300 299 299 299 298 298 298 298 298 298 297 297 297 297 297 297 297 297 297 296 297 297 297 297 297 297 297 297 298 298 298 298 299 299 300 301 302 303 304 306 308 309 311 312 313
323 322 322 321 318 313 312 315 318 321 321 318 318 317 317 318 318 318 318 318 317 317 316 315 315 316 315 316 317 315 314 311 309 308 306 304 302 301 302 300 300 300 299 298 298 298 297 298 298 298 299 298 298 298 298 297 297 297 297 297 297 297 297 296 296 296 296 296 296 296 296 296 296 296 296 296 296 296 296 297 297 297 297 297 297 297 297 297 298 298 298 299 300 301 303 304 306
323 324 322 318 316 314 315 317 318 322 322 319 318 317 317 318 318 318 318 318 318 317 316 315 316 316 316 316 317 314 312 311 309 308 305 303 301 301 301 299 297 298 298 297 297 297 297 297 297 297 297 297 297 297 297 296 296 296 296 296 296 296 296 296 296 296 296 296 296 296 296 296 296 296 296 296 296 296 296 296 296 296 296 296 296 296 296 296 296 297 297 297 297 297 298 299 299
321 324 323 318 319 320 319 318 319 322 321 320 319 317 317 317 318 318 318 318 318 318 317 316 315 315 316 317 316 312 312 312 309 306 304 302 302 301 300 299 297 297 297 296 297 297 297 297 296 296 296 296 296 296 296 296 296 296 296 296 296 296 296 296 296 296 296 296 295 296 296 296 295 295 296 295 296 296 296 296 296 296 296 296 296 296 296 296 296 296 296 296 296 297 297 297 297
321 321 322 320 322 322 319 317 319 319 318 320 319 316 316 317 318 317 317 317 318 317 316 316 315 315 315 316 316 313 313 311 308 305 303 302 302 301 301 299 297 297 296 296 297 296 296 297 296 295 296 295 295 296 296 296 296 296 296 296 296 296 296 296 295 295 295 295 295 295 295 295 295 295 295 295 295 295 295 295 296 296 296 296 296 296 296 296 296 296 296 296 296 296 297 297 297
321 321 320 321 320 319 319 318 319 318 318 321 317 315 316 316 316 317 317 317 317 315 315 315 315 315 315 316 317 315 313 310 307 304 303 302 301 301 301 299 297 297 296 297 298 297 298 298 297 295 295 295 295 295 295 295 295 295 296 296 296 295 295 295 295 295 295 295 295 295 295 295 295 295 295 295 295 295 295 295 295 295 295 295 295 295 295 296 296 296 296 296 296 296 296 296 297
320 321 321 320 317 317 320 320 320 318 318 319 316 315 316 316 315 316 315 314 316 314 314 315 314 314 315 315 314 314 312 308 306 304 303 302 302 302 301 300 299 298 297 298 299 299 299 299 297 296 295 295 295 295 295 295 295 295 295 295 295 295 295 295 295 295 295 295 295 295 295 295 295 295 295 295 295 295 295 295 295 295 295 295 295 295 295 295 295 295 295 295 295 296 296 296 297
320 322 321 318 316 317 320 321 320 318 319 318 315 315 316 316 314 313 312 311 314 315 314 314 314 314 313 312 310 311 310 306 305 304 303 303 302 302 301 300 300 300 299 299 299 299 298 297 297 296 295 295 295 295 295 295 295 295 295 295 295 295 295 295 295 295 295 295 295 295 295 294 294 294 294 294 295 295 295 295 295 295 295 295 295 295 295 295 295 295 295 295 295 295 295 296 297
321 322 320 317 318 319 320 321 319 319 319 317 315 315 315 316 314 312 312 312 313 314 314 314 314 313 312 309 308 310 308 305 305 304 304 303 303 302 302 301 301 301 300 300 300 299 297 296 296 295 295 295 295 295 295 295 295 295 295 295 295 294 295 294 295 295 295 295 295 295 294 294 294 294 294 294 294 294 294 294 294 295 294 295 295 295 295 295 295 295 295 295 295 295 295 295 297
321 322 319 318 321 321 319 319 318 318 318 317 316 315 315 316 315 313 313 314 313 314 314 313 313 313 312 309 309 309 306 306 305 305 305 304 304 303 302 302 301 302 301 301 300 299 298 297 296 296 295 295 295 295 295 295 295 295 295 295 295 294 294 294 294 294 294 294 294 294 294 294 294 294 294 294 294 294 294 294 294 294 294 294 294 294 294 294 294 294 294 294 294 294 294 295 296
320 321 319 320 321 319 319 317 316 317 317 317 316 315 315 316 315 313 313 315 315 315 315 314 314 314 313 310 309 309 306 306 305 305 305 304 304 303 303 303 302 302 301 301 300 299 299 298 296 296 295 295 295 294 295 295 295 295 295 295 296 295 294 294 294 294 294 294 294 294 294 293 294 294 293 293 293 294 294 293 294 293 293 293 293 293 293 293 293 293 293 293 293 293 293 294 294
319 318 319 320 319 318 318 317 316 316 315 316 316 315 314 315 315 313 313 315 315 316 315 315 315 315 315 311 309 309 308 307 306 305 305 305 305 304 303 303 302 302 302 301 301 299 299 298 297 296 295 295 295 294 296 296 295 296 296 295 295 295 294 294 294 294 294 294 294 293 293 293 294 294 293 293 293 293 293 293 293 293 292 293 293 293 293 292 293 293 293 293 293 293 293 293 293
318 318 318 319 317 317 317 315 315 314 313 314 315 315 315 315 314 313 314 315 316 317 316 316 316 316 316 313 310 310 309 307 307 306 305 305 305 304 304 303 303 302 302 302 301 299 299 298 297 295 295 294 294 296 297 296 295 297 296 295 296 295 294 294 294 294 293 293 293 293 293 293 294 294 293 292 292 292 293 292 293 293 292 292 292 292 292 292 292 292 292 292 292 292 292 292 293
316 318 318 317 316 316 316 314 313 312 313 314 315 315 314 314 314 314 314 314 316 316 315 315 316 316 316 313 310 310 309 308 307 306 306 305 305 304 304 303 303 302 302 301 301 299 298 298 297 295 295 294 294 296 296 295 295 297 295 294 296 295 295 294 294 294 293 293 293 293 293 293 293 293 292 292 292 292 292 292 292 292 292 292 291 292 292 291 292 291 291 292 292 292 292 292 293
315 317 317 316 316 315 315 314 312 312 313 314 313 312 313 314 314 315 314 314 315 315 314 313 314 315 315 312 310 310 310 309 308 307 306 306 305 305 304 303 302 302 302 301 301 299 298 298 297 296 295 294 294 294 295 295 295 295 293 294 294 294 294 294 294 293 293 293 293 293 293 292 292 292 292 291 292 292 291 291 292 292 292 292 291 291 292 291 291 291 291 291 291 291 291 292 294
316 317 317 316 315 315 315 313 312 312 312 312 311 311 313 314 314 313 313 314 314 315 314 312 312 313 313 312 311 311 311 310 309 308 307 306 306 305 304 303 302 302 302 301 300 299 298 298 297 296 296 295 295 294 296 297 295 294 294 294 293 293 294 293 293 293 293 292 292 292 292 292 292 292 291 291 291 291 291 291 291 292 292 292 291 292 292 290 290 291 291 291 290 291 291 292 293
316 316 317 316 315 315 314 313 313 312 312 312 311 312 314 313 312 313 314 314 314 315 314 313 312 311 312 311 311 311 311 311 310 309 307 307 306 305 305 303 302 302 302 301 300 299 298 297 296 297 296 296 296 295 297 297 295 294 293 294 293 293 293 293 293 293 292 292 292 292 292 292 291 291 291 291 291 290 290 290 291 291 292 293 292 292 291 290 290 291 291 291 291 291 291 292 292
315 315 316 315 315 315 314 314 313 313 312 312 311 313 314 312 311 313 315 314 314 315 314 314 312 311 311 311 311 311 311 311 311 310 308 307 306 305 305 304 303 302 301 301 300 299 298 297 296 296 296 296 295 295 297 296 295 295 293 293 293 293 293 292 292 292 292 292 292 292 292 291 291 291 291 290 290 290 290 289 290 291 292 292 291 291 290 289 290 291 291 291 291 291 292 292 292
313 313 314 314 314 314 314 313 313 312 312 312 312 312 314 313 311 314 315 312 312 314 314 314 312 311 311 311 311 311 311 311 311 310 309 308 306 306 305 304 303 302 301 301 300 300 298 297 296 296 296 295 295 296 296 296 295 295 293 293 293 292 292 292 292 292 292 292 291 291 291 291 291 290 290 290 290 290 290 289 290 290 292 291 289 289 289 289 290 291 291 290 290 291 291 292 293
312 312 314 316 315 315 314 314 313 313 313 312 311 312 313 314 313 313 314 312 312 313 313 313 312 311 311 311 311 310 310 311 311 310 309 308 307 306 305 305 303 302 302 301 300 300 298 297 297 296 296 295 295 296 295 295 295 294 293 293 293 292 292 292 292 292 291 291 291 291 291 290 290 290 290 290 290 289 289 289 289 290 291 290 288 288 289 289 290 291 291 290 290 291 291 292 293
313 313 314 316 316 316 316 315 313 313 312 311 312 312 313 315 314 315 316 313 312 312 312 312 312 311 311 311 311 310 310 310 310 310 309 308 307 306 305 305 304 302 302 301 300 300 298 297 297 296 296 295 294 296 295 295 294 293 293 293 292 292 292 292 292 291 291 291 291 291 290 290 290 290 290 289 289 289 288 289 289 290 290 288 287 288 288 288 290 291 290 290 291 291 291 292 292
314 315 314 315 316 316 317 314 312 313 311 311 312 311 313 316 316 316 316 313 312 312 312 312 313 312 311 311 311 310 310 310 310 310 309 309 307 306 305 305 304 302 302 301 300 299 298 297 297 296 296 295 294 295 295 295 294 293 293 293 292 292 292 292 291 291 291 290 290 291 290 290 290 290 289 289 289 288 288 288 289 289 288 287 287 288 287 288 290 290 290 290 290 291 291 291 292
316 315 314 316 316 316 317 313 312 314 311 310 313 312 314 316 316 317 315 313 313 312 313 313 313 313 311 311 311 310 310 310 310 309 309 308 307 306 305 304 304 302 301 301 300 299 298 297 296 296 295 295 294 294 294 294 293 293 293 293 292 292 291 291 291 291 291 290 290 290 290 290 290 289 289 289 288 288 288 288 288 288 287 287 287 287 287 288 289 289 289 290 290 290 291 291 291
318 316 315 316 316 317 317 314 312 314 312 311 312 313 314 315 316 315 313 313 313 312 314 314 314 314 312 311 310 310 310 309 309 308 308 308 307 306 305 304 303 302 301 301 300 299 298 297 296 295 295 295 294 294 293 293 293 292 293 292 292 291 291 291 291 291 290 290 290 290 290 289 289 289 289 288 288 288 287 287 287 287 286 286 286 286 287 288 289 289 289 289 289 290 290 290 290
316 317 316 317 317 315 315 314 313 313 313 313 312 313 314 315 316 315 312 312 313 313 313 314 314 314 314 313 311 310 310 309 309 308 308 307 307 305 304 304 303 302 301 301 300 299 298 297 296 295 295 294 294 294 293 293 292 292 292 292 291 291 291 291 291 290 290 290 290 289 289 289 289 289 289 288 288 288 287 287 286 287 286 286 286 286 287 288 289 289 289 289 289 289 289 289 289
312 313 314 315 316 315 316 316 314 312 313 313 314 314 314 314 315 315 314 313 313 313 313 313 314 314 314 314 312 311 311 310 309 308 308 307 306 305 304 303 303 302 301 300 300 298 298 297 296 295 295 294 294 294 293 293 293 292 292 292 291 291 291 291 290 290 290 290 289 289 289 289 288 288 288 288 288 287 286 286 286 286 286 285 286 287 287 288 289 288 288 288 288 288 288 288 288
314 314 315 314 314 314 317 317 313 312 313 313 314 314 315 315 315 316 315 315 314 314 314 314 314 314 314 314 313 313 311 311 310 309 308 307 306 305 303 303 302 302 301 300 299 298 298 297 296 295 295 294 294 294 293 293 293 292 292 292 291 291 291 291 290 290 290 289 289 289 289 288 288 288 288 288 287 286 286 285 285 285 286 286 286 287 287 288 288 287 287 287 287 287 288 288 288
317 317 317 315 314 315 318 317 311 312 314 314 315 315 315 316 316 316 316 315 315 314 314 314 314 314 314 314 314 314 312 312 311 309 308 307 305 304 303 302 302 301 301 300 299 298 298 297 296 296 295 295 294 294 294 293 293 293 293 293 292 292 292 291 290 289 289 289 289 289 288 288 288 287 287 287 286 286 285 285 285 285 286 286 286 287 287 287 286 286 286 287 287 287 288 288 288
317 316 314 315 316 317 319 317 310 311 313 314 315 316 316 316 315 315 315 315 314 314 314 314 314 315 315 315 314 314 313 313 311 309 308 307 305 304 303 302 301 301 300 299 298 298 298 297 297 296 295 295 294 294 294 294 294 293 293 293 293 293 292 292 291 290 289 289 289 288 288 287 287 287 287 287 286 285 285 285 285 285 286 286 286 286 286 286 286 286 287 287 287 287 287 287 288
316 316 316 315 317 319 318 315 310 310 312 314 315 314 315 315 315 315 314 314 314 314 314 315 315 315 315 316 315 315 314 312 310 309 308 307 305 304 302 301 301 301 300 299 298 298 297 297 297 296 295 294 294 294 294 294 294 294 294 294 293 293 292 291 291 291 290 289 288 288 288 287 287 287 286 286 285 285 285 284 284 284 285 285 286 286 286 286 286 286 286 286 286 286 287 287 287
316 316 316 316 318 319 317 314 311 310 311 313 314 314 315 315 314 315 315 314 314 315 315 316 317 316 317 317 317 315 313 312 310 309 307 306 305 304 302 301 301 301 300 299 298 298 297 297 297 296 295 294 294 293 293 294 294 293 293 293 292 292 291 290 290 290 289 289 288 288 287 287 286 286 286 285 285 284 284 284 284 284 284 285 285 285 285 286 286 286 286 286 286 286 286 286 286
317 318 317 317 318 319 318 317 314 313 313 312 313 314 315 316 316 316 315 315 315 315 315 316 317 316 316 317 318 317 314 313 311 309 308 306 305 304 303 302 301 300 300 299 298 297 297 297 296 296 295 294 294 293 293 293 293 292 291 291 291 290 290 289 289 289 288 288 288 287 287 287 286 286 285 285 285 284 284 284 283 283 284 284 284 285 285 285 285 285 285 285 285 285 285 286 285
316 319 319 319 319 319 320 320 317 317 316 314 314 314 314 315 317 318 316 314 313 315 314 314 316 317 317 317 316 317 315 313 312 311 309 306 305 304 303 302 301 300 300 299 298 297 297 297 296 296 295 294 294 293 293 293 292 291 291 290 290 290 290 290 290 290 290 289 288 288 287 287 286 286 285 285 284 284 284 283 283 283 283 283 284 284 284 284 285 285 285 285 284 284 285 285 285
315 320 321 320 319 319 320 320 318 317 316 314 314 315 315 315 315 316 316 314 314 315 315 315 317 317 318 320 317 316 315 313 312 311 309 307 305 305 304 302 301 300 300 299 298 297 297 296 296 296 295 294 294 293 292 292 292 291 291 290 291 291 291 291 291 291 291 290 289 288 287 287 286 285 285 284 284 284 283 283 283 282 283 283 284 284 284 284 284 284 284 284 284 284 284 284 284
317 319 319 318 318 319 319 319 318 317 317 316 314 315 316 316 315 315 315 314 314 314 315 316 316 315 315 319 319 316 314 313 312 312 310 307 305 305 304 303 302 301 300 299 298 297 297 296 296 295 295 294 293 293 292 291 291 291 291 291 291 292 292 292 292 291 290 289 288 287 286 286 286 285 285 284 284 283 283 283 282 282 282 283 283 283 283 283 283 283 283 283 283 283 283 284 284
317 315 315 316 317 317 317 317 316 316 316 317 316 315 316 316 315 316 315 313 313 313 314 315 315 315 314 316 319 317 314 313 312 312 310 307 306 305 304 303 302 301 300 299 298 297 297 296 296 295 295 294 293 292 292 291 291 291 291 291 292 292 292 292 291 289 288 288 287 286 286 286 285 285 284 284 283 283 282 282 281 282 282 282 283 283 283 283 283 282 282 283 283 283 283 283 283
314 312 314 314 314 314 315 315 315 315 316 318 318 315 316 316 314 315 316 314 314 314 314 315 315 316 317 317 320 319 314 313 313 312 310 308 307 306 304 303 302 300 300 299 298 297 296 296 296 295 294 294 293 292 291 291 291 290 291 291 291 291 291 290 290 289 288 287 287 286 286 285 285 285 284 284 283 282 282 282 281 281 281 282 282 282 282 282 282 282 282 282 282 282 282 282 283
312 313 314 314 314 313 313 313 313 315 318 319 318 316 315 316 315 314 316 314 315 316 314 315 316 317 319 318 320 319 314 313 312 311 310 309 308 306 304 303 302 300 299 299 298 297 296 296 295 295 294 293 293 292 291 291 290 290 290 291 291 291 290 289 289 288 288 287 287 286 286 285 285 285 284 284 283 282 282 281 281 281 281 281 282 282 282 282 282 282 282 282 282 282 282 282 282
313 314 314 316 316 313 313 313 312 316 319 317 317 318 317 316 314 314 315 315 315 315 314 314 315 317 319 319 320 318 314 312 312 311 310 308 307 306 304 304 302 300 299 298 298 297 296 296 296 295 294 293 293 292 291 291 290 290 290 290 290 290 290 289 289 288 288 287 287 286 286 285 285 284 284 283 283 282 282 281 281 281 281 281 281 282 282 281 281 281 281 281 281 281 281 281 281
313 314 314 317 317 316 317 317 316 318 318 314 315 318 319 316 314 313 314 314 314 314 313 313 314 315 316 321 322 317 313 312 311 310 309 308 307 305 305 304 302 301 299 298 298 297 296 296 296 295 294 293 293 292 291 291 290 289 289 289 289 289 289 288 288 288 287 287 287 286 286 285 285 284 284 283 283 282 282 281 281 281 281 281 281 281 281 280 280 281 281 281 281 281 281 281 281
312 314 315 317 318 319 321 319 318 318 316 312 311 314 316 314 312 314 314 313 314 313 313 315 317 315 317 322 321 316 313 312 311 310 309 308 307 306 305 304 302 301 299 298 298 297 296 296 296 295 294 293 292 292 291 290 290 289 289 289 289 288 288 288 287 287 287 286 286 285 285 284 284 284 283 283 283 282 281 281 280 280 280 280 280 280 280 280 280 280 280 280 280 280 280 280 280
312 314 315 317 317 317 318 317 317 317 316 314 311 312 313 311 311 315 314 313 314 314 313 317 320 319 321 322 318 314 312 311 310 310 309 308 307 306 305 304 302 301 300 298 298 297 296 296 295 295 294 293 292 292 291 290 290 289 289 288 288 288 287 287 287 286 286 285 285 284 284 283 283 283 282 282 282 281 281 280 280 280 279 279 279 279 279 279 279 279 280 280 280 280 280 280 280
313 313 315 317 317 316 316 316 317 315 315 315 313 312 312 311 313 315 314 314 314 313 314 316 317 319 321 320 317 314 312 310 310 310 309 308 307 306 305 304 303 301 300 299 298 297 296 296 295 295 294 293 292 291 291 290 290 289 288 288 287 287 287 286 286 285 285 284 284 283 283 282 282 282 281 281 281 281 280 280 279 279 279 279 278 279 279 279 279 279 279 279 279 279 279 279 279
314 313 315 316 316 316 317 318 317 314 315 316 315 314 313 312 314 315 314 313 313 313 314 314 315 316 317 319 319 317 314 311 311 310 309 308 307 306 305 304 303 301 300 299 298 297 296 296 295 295 294 293 292 291 290 290 289 289 288 287 287 286 286 285 285 284 284 283 283 282 282 282 281 281 280 280 280 280 279 279 278 278 278 278 278 278 278 278 278 278 278 278 278 278 278 279 279
313 313 315 314 313 314 314 316 316 315 316 316 314 314 313 312 314 314 313 312 312 313 313 314 314 315 316 318 320 320 317 314 311 310 309 308 307 306 305 304 303 301 300 299 297 297 296 296 295 295 294 293 292 291 290 290 289 288 287 287 286 286 285 285 284 284 283 283 282 282 282 281 280 280 280 280 280 279 279 278 278 278 278 278 278 278 278 278 278 278 278 278 278 278 278 278 278
310 310 312 312 313 314 314 315 315 315 316 316 315 315 314 313 314 314 312 312 313 313 313 313 313 313 315 317 318 318 317 316 313 311 309 308 307 306 305 304 303 301 300 298 298 297 296 296 295 294 294 293 292 291 290 289 288 288 287 286 286 285 284 284 283 283 282 282 282 282 281 280 280 280 279 279 279 279 278 278 278 278 278 277 277 277 277 277 277 277 277 277 277 277 277 277 277
307 308 310 310 311 314 314 314 314 314 315 316 317 318 316 315 316 315 314 312 312 313 313 313 313 313 314 315 316 318 319 319 316 313 311 309 307 306 305 304 302 301 300 298 297 296 296 295 295 294 294 293 291 290 289 289 288 287 286 285 285 284 284 283 283 282 282 282 281 281 280 280 279 279 278 278 278 278 278 278 277 277 277 277 277 277 277 276 276 276 276 276 276 276 276 276 276
308 308 310 310 310 311 312 313 314 313 315 315 317 317 315 314 315 316 314 313 313 314 314 314 314 313 313 314 316 318 320 320 317 315 312 310 308 306 304 303 301 300 299 298 297 296 295 295 294 294 293 292 291 290 289 288 287 286 286 285 284 283 283 283 282 282 282 281 281 280 280 279 279 278 278 278 278 278 277 277 277 276 276 276 276 276 276 276 275 275 275 275 275 275 275 275 275
312 311 311 311 311 311 312 315 315 314 314 315 316 317 315 313 314 314 314 314 314 314 314 315 316 314 314 315 316 318 319 319 318 316 314 312 309 306 302 301 300 299 298 297 296 296 295 294 294 293 293 292 290 289 288 287 287 286 285 284 283 283 282 282 282 281 281 280 280 279 279 278 278 278 278 277 277 277 276 276 276 275 275 275 275 275 275 275 275 275 275 275 274 274 274 274 275
Wind_Speed
2 1 0 1 2 3 4 3 3 3 4 6 2 1 4 4 2 4 6 5 3 5 4 1 1 0 1 1 3 4 6 3 3 1 0 3 5 3 3 4 5 5 6 6 5 6 7 6 9 8 8 8 7 8 7 5 4 4 4 5 6 8 8 8 6 5 6 6 7 6 5 6 7 7 8 8 9 9 8 6 6 6 7 8 8 8 8 8 8 9 9 9 9 10 9 9 10
2 1 1 2 3 4 1 2 4 3 5 5 3 2 5 6 3 6 7 7 2 4 5 2 3 2 2 4 5 5 2 6 6 4 4 6 7 3 3 4 5 5 5 6 5 5 7 6 7 9 8 7 8 7 6 5 4 4 4 4 5 6 6 6 6 6 5 4 5 4 3 3 3 4 4 5 5 5 6 5 4 4 5 6 7 8 9 9 9 9 9 9 9 9 9 9 9
2 2 3 3 4 4 2 2 5 4 5 5 2 5 6 6 6 6 4 6 6 7 6 4 2 2 3 5 4 5 1 5 6 6 6 7 6 4 5 4 5 4 4 5 5 5 6 5 5 7 6 5 5 5 4 4 4 4 4 4 4 4 4 4 5 5 4 4 4 4 3 3 3 2 2 3 2 2 3 4 3 3 2 3 4 6 9 9 9 9 9 9 9 8 8 8 9
3 3 4 4 4 4 3 4 5 5 5 5 1 6 6 5 6 5 5 7 8 7 5 4 3 1 4 8 2 3 1 5 5 5 6 6 4 6 7 5 5 3 4 5 5 5 3 3 4 4 4 4 4 4 4 4 4 4 4 4 4 4 4 4 3 4 3 4 4 4 4 3 3 3 3 3 3 3 3 4 3 4 4 3 2 3 5 7 8 8 8 8 10 8 7 8 8
1 3 4 5 3 2 3 4 4 6 5 4 2 5 7 5 6 7 7 7 6 5 4 5 5 3 2 5 2 1 1 5 5 4 6 7 6 8 8 7 6 4 5 5 5 5 3 5 5 5 4 4 4 4 4 4 4 4 5 4 5 4 4 4 4 4 3 3 3 3 3 3 3 3 3 3 3 3 4 4 4 5 5 5 4 4 3 4 4 7 7 7 9 7 7 8 9
2 3 4 5 3 1 3 5 5 6 2 4 4 2 6 5 6 8 7 6 5 3 2 4 3 1 3 1 1 1 3 3 6 5 5 9 9 8 8 7 6 6 6 6 6 5 5 6 5 5 5 5 4 4 5 5 5 5 5 5 5 5 5 5 5 5 4 4 3 3 3 3 3 4 4 4 4 4 4 5 5 5 5 6 6 6 7 7 6 6 6 6 8 8 8 9 9
4 3 3 4 3 1 5 6 6 6 2 3 4 2 4 6 6 9 9 6 4 2 2 4 1 2 3 3 2 2 5 3 5 5 6 10 11 10 9 7 7 7 7 7 6 5 7 7 6 5 5 5 5 4 4 4 4 4 5 5 5 5 5 5 5 5 5 5 4 4 4 4 4 5 5 5 5 5 5 5 6 6 6 7 7 8 8 9 9 9 10 11 12 12 12 12 12
5 2 1 3 4 3 6 7 7 5 2 3 1 2 0 5 7 8 9 6 4 5 6 5 3 4 2 3 3 3 5 4 6 7 8 10 12 11 9 7 8 8 7 7 6 6 8 8 8 6 5 4 4 3 3 3 3 3 3 3 4 4 4 5 5 5 6 6 6 6 6 6 6 6 7 7 6 6 6 6 6 6 7 7 8 8 8 9 10 11 12 13 14 15 15 14 14
5 3 0 3 5 4 6 7 6 5 1 2 2 0 2 4 7 7 9 6 4 5 7 7 6 5 2 2 3 4 6 6 8 8 9 10 12 11 9 7 8 9 9 8 8 8 9 9 8 7 6 5 4 3 2 1 1 1 2 2 2 3 3 4 4 5 6 6 6 6 7 7 7 7 7 7 7 6 6 6 6 6 6 7 7 8 8 9 10 11 12 14 15 16 16 16 16
4 3 2 3 5 5 6 7 5 2 1 2 3 4 3 6 7 7 9 8 5 5 5 6 7 8 3 3 2 4 7 11 11 10 10 11 12 11 10 9 9 10 10 10 10 9 9 9 8 8 7 6 5 4 3 2 1 0 1 1 2 2 2 3 3 4 5 5 6 6 6 7 7 7 7 7 7 7 6 6 7 7 7 7 7 8 8 9 9 11 12 14 15 16 17 18 18
4 4 2 4 5 6 6 5 3 1 2 3 3 6 6 7 8 8 9 8 7 6 6 6 6 10 9 7 2 5 10 14 13 13 12 12 13 11 10 11 12 12 12 13 12 10 9 9 8 8 7 7 6 5 4 3 3 1 0 1 1 2 2 3 3 4 5 6 6 7 7 7 7 8 8 8 8 8 8 8 8 9 9 9 10 10 10 11 11 12 13 14 15 16 17 19 19
4 3 3 5 6 6 4 5 5 2 1 4 5 7 6 8 10 9 11 10 9 8 8 10 3 4 9 8 2 8 13 15 14 14 15 14 13 11 10 11 13 14 14 14 13 11 11 10 9 8 7 6 5 4 3 3 3 2 2 2 2 3 4 4 5 6 6 7 7 7 7 8 8 8 8 9 9 9 9 9 10 10 11 11 12 12 13 13 13 13 14 15 16 16 17 18 19
4 3 4 6 5 6 5 6 5 3 4 5 6 7 7 9 11 11 10 9 10 9 9 12 3 1 8 4 3 7 11 15 15 16 16 14 12 11 10 10 14 14 15 14 13 13 12 10 10 9 7 5 4 3 3 3 3 3 3 4 4 5 5 6 7 7 8 8 8 8 8 9 9 9 9 10 10 10 10 10 11 11 11 12 12 12 12 13 13 14 14 15 16 16 17 17 18
3 3 4 6 3 6 6 6 5 4 6 2 5 8 8 9 9 9 8 10 11 6 2 7 5 2 7 5 3 5 10 16 16 16 16 13 12 12 10 11 14 14 15 14 13 13 12 10 9 9 7 6 5 3 3 2 2 3 3 4 5 5 6 7 7 7 8 8 9 9 9 10 11 11 11 11 11 11 11 11 12 12 12 12 12 12 12 12 13 13 13 14 15 15 16 16 17
3 2 3 6 5 6 4 5 5 6 4 4 7 7 9 7 5 9 9 10 6 3 4 4 6 3 3 5 2 2 12 19 17 17 15 13 11 11 10 11 13 13 14 12 11 10 9 9 9 9 8 7 6 4 3 2 2 3 3 4 5 5 6 7 7 7 8 8 8 9 10 12 12 13 13 13 13 13 13 13 13 13 13 14 14 14 14 14 14 14 14 15 15 15 15 14 14
3 3 3 5 6 5 2 3 4 5 3 5 6 6 9 7 4 7 3 4 2 3 4 4 7 5 4 1 2 4 16 21 18 17 15 14 12 10 10 10 10 10 12 11 9 9 8 8 8 9 9 8 7 6 5 3 3 3 3 3 4 5 6 6 7 7 7 8 8 9 11 12 12 13 13 13 13 14 14 14 14 14 14 14 14 15 15 15 15 15 16 16 17 16 16 16 15
2 3 5 5 5 5 1 3 3 3 3 5 6 6 9 7 5 4 2 4 6 3 7 6 8 7 4 2 3 5 19 21 19 18 16 15 12 11 11 11 10 10 11 11 9 9 10 10 10 10 10 9 8 7 5 4 3 3 3 3 3 4 4 5 6 7 8 8 9 10 12 12 12 13 13 13 13 13 14 14 14 14 14 15 15 15 15 15 16 16 17 17 18 18 19 19 18
3 4 5 5 5 4 1 4 3 3 5 1 6 8 9 8 7 5 1 7 11 8 9 8 8 9 5 6 5 10 20 19 19 19 17 16 14 14 13 13 13 12 12 12 11 11 12 12 12 11 11 10 8 7 6 5 4 3 3 2 3 3 4 5 6 7 8 9 10 12 12 12 12 13 13 13 13 13 14 14 14 15 15 16 16 16 16 17 17 18 18 19 19 20 21 21 18
5 4 5 6 5 2 2 5 4 4 6 2 3 7 9 7 6 7 6 11 12 13 12 10 12 12 10 9 9 15 19 18 20 20 19 19 17 17 16 15 15 15 14 14 13 14 14 14 14 12 13 11 9 8 6 6 5 4 3 2 2 3 4 5 6 7 8 9 10 11 10 11 11 12 13 14 15 15 16 16 16 17 17 18 18 18 19 19 19 20 20 21 21 22 23 21 19
5 4 6 5 2 3 3 4 5 4 4 4 4 5 8 7 4 7 8 12 13 15 13 12 15 16 15 13 14 17 19 18 20 21 21 20 19 18 17 17 17 17 16 15 14 15 15 14 15 14 14 12 10 9 8 6 6 4 3 2 2 2 3 5 5 6 7 8 9 9 9 11 11 11 13 14 14 14 14 16 17 17 17 18 18 18 19 19 20 20 21 21 22 22 23 22 22
2 4 7 4 3 5 3 2 3 3 2 6 6 3 7 8 5 7 8 11 13 15 15 15 16 16 16 15 16 19 19 19 21 22 21 22 21 19 18 17 17 16 16 15 14 16 16 15 17 16 15 14 12 10 8 8 7 5 4 3 2 1 2 3 4 5 6 7 7 8 9 11 10 9 12 13 13 13 13 14 14 15 16 16 17 17 17 18 19 19 20 20 20 20 21 21 22
2 7 9 5 3 5 1 2 0 1 2 6 7 6 6 5 6 10 11 12 12 7 8 14 16 15 13 16 18 18 19 19 21 22 22 22 23 21 19 18 17 17 17 16 16 17 17 16 17 17 16 15 13 11 9 9 8 6 6 5 3 2 1 2 3 3 4 5 6 7 8 9 9 9 11 12 12 13 13 14 13 14 16 16 17 17 17 19 18 18 19 19 19 19 19 20 20
5 7 7 5 5 6 2 2 1 2 4 7 7 5 3 5 8 11 14 18 15 4 1 5 8 9 7 16 18 17 18 19 21 24 25 25 25 24 22 19 19 19 18 18 16 17 19 17 18 18 16 16 15 13 11 10 9 8 8 7 5 4 2 2 1 1 3 4 5 6 7 7 8 8 10 12 12 12 13 14 13 14 16 16 17 17 18 20 19 19 19 18 19 18 19 19 17
6 7 6 5 5 7 4 1 2 3 7 7 3 3 5 10 10 9 15 21 19 11 2 2 2 3 6 14 17 17 19 20 23 26 26 25 26 26 23 20 19 18 18 18 17 17 19 19 19 19 17 17 16 14 12 10 11 10 9 7 6 6 4 3 1 1 2 3 4 5 5 6 7 8 10 11 11 12 12 14 13 13 14 15 17 16 17 19 18 18 18 19 20 19 19 17 15
10 9 6 3 3 8 6 3 4 5 7 5 3 7 11 13 8 8 18 19 17 16 9 7 6 6 9 13 16 16 17 20 22 23 23 23 23 24 23 20 19 19 19 19 18 17 20 20 20 19 17 17 16 15 12 10 12 11 10 8 8 7 5 4 2 1 1 2 3 4 5 5 7 8 10 10 10 11 12 14 13 13 13 13 15 14 15 18 17 16 16 18 19 19 19 17 16
7 8 5 4 6 7 6 6 8 6 6 5 7 12 13 8 4 11 22 20 17 17 15 11 9 10 12 12 14 15 16 18 20 22 23 22 21 23 24 22 21 21 20 20 19 18 20 21 20 19 17 16 16 15 13 11 13 12 11 11 8 7 6 5 3 2 1 1 2 4 4 5 7 7 9 9 10 12 12 13 13 13 12 11 12 12 13 16 15 14 14 16 18 18 17 17 17
3 6 7 8 9 7 6 8 9 6 6 8 10 13 12 4 2 13 15 9 12 14 16 14 11 12 13 12 13 14 15 18 21 21 21 21 21 24 26 25 24 22 21 21 20 19 20 21 21 19 17 17 18 16 14 13 13 12 12 11 9 9 7 5 4 3 2 2 2 3 4 5 6 6 8 9 10 11 12 12 11 11 10 9 11 12 14 16 14 12 13 17 18 16 16 15 14
4 5 8 11 12 10 9 11 10 6 5 8 9 11 12 6 6 18 12 4 5 10 13 13 12 12 13 13 13 12 13 17 21 20 21 23 24 25 27 28 26 23 22 23 21 20 21 22 22 19 18 20 19 16 16 15 14 14 13 11 11 10 8 6 5 4 3 4 3 2 3 4 5 6 7 9 10 10 11 11 10 10 8 9 13 14 16 17 14 12 14 18 18 16 17 15 13
4 4 9 12 11 13 14 14 10 9 6 6 5 8 12 13 15 24 16 7 7 9 11 12 12 12 11 12 11 11 12 16 19 20 23 25 24 25 27 28 27 24 22 22 21 21 23 22 21 19 18 22 20 15 17 16 15 16 13 12 12 10 8 7 6 5 5 4 3 3 3 4 5 6 7 9 9 10 10 10 10 9 8 12 16 16 16 15 13 13 14 17 17 16 17 15 14
5 5 7 9 9 11 13 11 8 9 5 7 5 8 10 14 21 23 13 10 10 10 12 12 11 11 10 11 10 11 13 15 18 22 24 25 23 24 26 26 26 25 22 22 23 23 24 24 21 20 19 21 20 15 16 16 15 16 14 13 12 10 9 8 7 6 6 5 4 4 4 5 6 6 8 9 9 10 10 10 10 9 10 15 17 15 15 16 13 13 14 15 15 15 15 14 15
5 5 5 6 9 6 6 9 9 9 4 7 7 8 11 10 15 18 9 12 12 11 12 12 12 10 10 11 11 12 13 15 20 23 24 23 23 23 24 25 26 26 23 23 25 24 25 26 24 22 21 21 21 17 15 16 16 16 14 13 12 11 10 8 8 7 7 5 5 5 6 6 6 7 8 9 9 10 10 10 10 10 13 17 17 15 17 17 13 13 14 13 14 14 14 15 15
6 5 6 7 7 4 6 9 11 9 4 8 10 6 11 13 9 5 8 10 11 11 12 11 12 12 11 11 11 12 12 16 21 23 23 23 23 22 23 26 27 28 26 24 25 24 23 26 26 26 24 22 22 19 18 18 18 17 15 14 14 13 11 9 9 8 8 7 6 6 8 7 7 8 8 9 9 10 10 10 10 11 15 17 17 17 17 15 12 13 14 12 13 15 16 16 16
6 7 8 8 8 8 5 7 10 8 5 10 13 8 10 10 2 6 7 8 10 10 11 12 14 14 13 12 11 12 12 14 17 20 24 24 23 23 23 26 27 28 27 24 26 27 24 26 28 27 25 23 22 21 21 20 19 18 16 15 15 13 12 10 9 10 9 8 7 7 9 8 8 9 9 9 9 10 11 11 11 13 16 17 17 17 15 13 12 13 13 12 13 15 16 17 17
6 6 8 9 11 11 6 3 6 8 6 10 13 12 15 15 10 5 6 8 10 11 13 14 16 15 14 12 12 13 12 13 15 19 25 25 24 24 24 25 27 27 27 25 27 29 25 25 29 28 25 24 22 21 23 21 18 18 16 15 15 13 13 11 10 10 10 9 8 9 10 9 9 10 9 10 10 11 11 12 12 13 15 16 16 15 14 13 12 11 12 13 13 14 16 17 18
9 9 8 10 10 11 11 5 5 10 9 10 12 13 18 21 19 16 12 10 12 14 14 16 17 18 16 14 14 13 14 15 14 18 24 25 24 25 23 24 26 26 26 25 26 28 25 25 29 28 25 24 21 20 22 20 17 16 14 13 14 13 13 12 12 11 10 9 9 11 11 9 10 10 10 10 10 11 11 11 12 12 14 15 14 13 13 12 11 11 13 14 14 14 16 17 18
14 13 9 11 11 11 15 5 6 10 8 10 14 15 18 21 19 19 17 13 13 15 15 15 17 17 15 14 15 13 14 14 13 18 23 24 24 24 23 24 25 26 26 25 25 27 25 25 28 27 25 24 20 19 21 18 16 14 13 12 13 13 12 12 13 13 11 11 11 12 12 10 10 11 10 10 10 10 10 11 12 13 13 13 13 12 12 11 12 13 14 14 15 15 15 15 16
13 12 10 13 12 13 16 5 6 6 6 10 15 16 19 21 20 19 17 15 15 17 17 17 17 16 13 15 17 15 15 11 11 16 20 23 23 23 23 22 24 25 25 25 26 27 26 27 28 27 25 24 21 21 21 19 17 16 14 14 13 13 13 12 13 14 12 12 13 13 12 11 11 11 11 11 10 10 11 11 12 12 11 11 12 12 13 14 14 14 13 13 13 14 14 14 14
12 12 11 12 11 13 13 1 6 5 4 10 14 16 19 20 19 19 17 16 17 19 19 19 19 17 13 15 18 15 11 8 10 14 17 21 22 22 23 22 24 26 26 27 27 27 27 27 28 28 26 25 23 22 22 20 19 17 16 15 14 13 13 12 11 12 13 14 14 13 12 12 12 12 11 11 11 11 11 12 11 11 10 10 12 14 15 15 13 12 11 12 12 13 14 13 12
12 9 9 10 10 12 7 4 6 5 4 7 11 13 16 19 20 19 20 19 17 20 21 18 18 17 15 15 14 13 10 9 11 13 14 18 21 22 22 22 24 26 26 27 28 28 28 27 27 27 26 26 24 23 23 21 18 17 14 13 14 12 11 13 12 11 13 14 14 14 13 13 13 12 12 11 11 12 12 12 11 12 11 11 12 14 14 13 12 11 10 11 12 13 13 12 10
10 8 7 9 10 10 6 2 3 5 7 8 11 12 13 17 19 19 22 20 16 19 20 16 15 16 16 14 11 10 12 12 12 13 14 16 19 22 22 22 23 25 25 27 28 28 28 27 27 26 26 26 25 25 24 20 18 18 16 15 16 13 11 13 15 15 16 15 14 14 14 14 13 12 12 12 12 12 12 12 12 12 12 11 12 14 13 12 11 10 10 11 12 13 13 11 10
9 10 10 11 11 11 9 3 3 7 9 6 8 11 11 13 15 14 12 10 12 15 15 13 14 15 14 13 11 10 11 11 12 13 14 15 17 21 23 23 24 25 27 28 30 29 28 27 27 26 26 27 26 27 26 22 21 22 20 18 17 15 13 13 14 15 16 16 15 14 14 14 13 12 12 12 13 13 12 12 12 13 13 12 12 13 13 12 11 11 11 11 11 13 14 13 11
8 11 15 16 14 14 11 5 6 8 7 2 2 9 8 6 10 10 4 5 8 9 10 12 12 12 11 10 11 10 10 10 11 12 13 15 16 19 22 23 24 26 27 27 29 29 27 27 28 27 27 27 27 29 29 26 25 25 23 20 17 15 14 14 14 13 13 14 14 13 13 13 13 13 13 13 13 13 13 12 13 13 13 13 13 13 13 13 12 11 10 11 12 12 13 14 13
8 5 7 11 13 13 12 7 4 6 7 1 1 6 9 4 6 8 5 7 9 7 8 12 9 10 9 7 8 9 10 10 10 10 13 14 15 17 20 24 26 25 26 26 26 28 27 27 29 28 27 27 28 30 31 29 26 24 23 22 18 16 14 13 14 12 11 11 10 11 12 13 14 14 14 13 13 12 12 12 13 13 13 13 13 14 14 13 12 11 11 12 13 13 13 14 14
5 1 2 2 5 8 8 6 6 6 9 5 5 4 10 10 6 9 9 8 10 10 11 12 10 11 14 9 7 9 10 10 10 10 13 14 15 17 19 23 25 24 25 25 26 29 29 28 30 29 27 27 30 32 33 32 27 24 23 21 17 16 14 12 12 12 12 12 11 12 13 12 13 15 14 13 12 13 12 12 13 12 13 13 14 14 14 13 13 12 13 13 14 14 13 14 14
2 3 3 3 1 2 2 3 6 6 8 8 8 10 8 12 6 10 13 12 12 13 13 13 11 12 15 13 6 9 10 10 10 10 13 14 15 18 20 21 22 24 25 26 27 29 29 29 29 29 28 28 31 33 33 33 29 26 25 21 17 15 13 11 11 11 13 14 14 14 13 13 13 14 14 13 13 13 12 12 12 12 13 13 14 14 15 15 15 15 15 15 15 15 14 15 15
2 4 4 5 3 1 1 4 4 5 9 9 9 13 7 13 7 8 10 9 11 12 11 12 12 9 11 12 5 7 8 9 9 10 11 12 14 17 18 19 21 23 25 25 26 28 29 29 29 30 29 29 32 34 34 33 30 28 25 22 19 16 15 13 11 11 13 13 14 14 14 13 11 11 12 12 13 12 12 11 11 12 13 13 14 15 16 16 16 15 15 15 16 16 16 16 16
5 5 2 2 3 2 2 4 2 4 11 8 13 18 11 10 4 8 8 8 12 11 8 9 10 8 9 9 6 5 7 7 8 9 10 11 13 16 17 19 20 22 23 24 26 28 31 31 30 30 29 29 33 35 35 34 32 30 26 23 22 19 17 16 14 13 13 13 13 13 13 12 10 10 11 11 12 12 11 11 12 13 14 14 15 15 15 15 14 13 14 15 16 17 17 17 17
4 3 2 2 4 3 3 3 3 6 10 4 13 20 17 11 3 6 8 10 14 11 6 7 8 7 8 7 5 5 7 7 7 8 9 10 12 14 16 18 20 22 22 24 26 29 31 30 30 30 29 30 33 35 36 34 33 32 28 26 25 22 20 19 17 15 15 14 13 11 11 10 10 11 11 11 11 11 11 12 13 13 13 13 14 14 15 15 14 14 14 15 16 16 17 17 17
4 5 4 4 4 3 5 4 5 8 6 2 7 11 13 13 9 7 7 9 13 10 4 8 8 7 8 6 5 5 6 6 7 7 8 9 10 11 14 17 20 21 23 25 26 28 29 29 29 30 31 30 31 35 35 34 33 33 30 28 27 24 22 21 19 17 15 14 12 12 11 11 10 10 10 10 10 9 11 12 13 13 13 13 14 15 17 17 16 15 15 16 17 17 17 18 18
8 8 6 6 6 5 6 6 6 8 4 3 4 2 6 9 8 14 16 14 14 11 8 9 8 9 8 5 6 4 5 6 6 7 8 9 10 10 12 16 19 20 22 24 25 27 28 27 29 31 30 29 30 34 34 32 32 31 30 29 28 26 24 22 21 19 16 15 13 13 12 12 11 10 11 11 11 11 13 14 14 15 15 16 17 18 18 18 17 16 16 17 18 19 18 18 19
9 7 6 7 6 5 6 7 7 6 5 2 5 2 5 5 2 13 20 19 16 12 11 9 8 10 6 4 5 5 5 6 6 7 8 9 10 11 12 16 19 19 21 24 25 26 27 28 30 32 31 30 32 34 33 32 32 30 30 30 28 26 26 24 22 20 18 17 16 15 14 14 14 13 14 14 13 14 15 16 17 17 17 17 18 18 17 17 17 16 16 17 19 20 19 19 19
6 5 6 7 6 7 7 8 6 2 7 6 6 4 7 6 4 9 13 14 15 14 13 10 10 10 6 4 5 6 6 7 7 7 8 9 10 11 13 15 17 18 21 23 25 27 29 29 31 33 32 31 32 35 34 32 31 31 31 31 29 27 26 24 22 21 19 19 19 18 16 17 17 15 15 15 15 15 16 17 17 16 17 17 18 18 17 17 16 16 17 18 19 20 20 20 20
4 6 6 3 1 3 6 7 3 1 7 9 5 6 9 8 9 9 13 13 15 15 14 14 13 10 7 7 6 6 7 7 8 8 8 9 10 10 13 15 17 18 21 24 26 29 31 30 30 32 31 30 32 35 34 32 31 32 32 31 30 28 27 25 23 22 20 20 20 19 18 18 18 17 16 16 15 16 16 16 17 17 16 17 17 17 17 17 17 17 18 19 20 20 19 20 21
4 4 4 2 4 1 4 6 3 3 9 9 8 13 12 9 8 8 15 16 16 17 16 14 11 8 8 9 7 6 7 8 8 8 8 9 10 11 13 16 18 19 21 24 26 28 30 29 30 32 32 32 33 35 35 34 33 33 33 32 31 29 28 27 24 22 21 21 21 20 19 18 18 16 16 15 15 15 16 16 16 17 16 16 17 17 17 17 17 18 19 20 20 19 19 21 21
1 2 2 1 1 3 5 5 4 6 8 9 15 20 15 11 7 6 14 16 17 18 16 13 11 9 8 8 7 7 7 7 8 8 8 9 9 11 13 15 18 19 20 22 23 25 27 27 29 32 31 33 36 36 36 35 34 34 33 32 31 30 28 27 26 24 22 22 22 20 19 18 17 16 15 14 14 14 15 15 15 15 15 16 16 17 17 17 16 17 19 19 19 18 19 21 21
0 4 3 1 2 3 5 6 5 7 8 9 16 19 13 9 7 7 14 17 17 16 13 12 12 12 10 8 7 7 6 6 7 8 8 9 9 11 14 16 18 19 19 21 23 26 27 26 30 31 29 32 37 37 37 36 35 35 34 33 31 30 29 28 27 26 24 23 22 20 19 18 16 15 14 14 14 14 14 14 14 15 15 16 16 17 17 17 16 17 18 18 18 18 20 22 22
6 5 6 6 3 1 3 5 6 6 7 7 10 15 12 3 2 6 13 16 16 14 11 9 9 11 10 8 7 7 6 6 7 7 8 8 9 10 13 16 17 18 19 20 23 27 27 27 31 32 31 35 38 38 38 38 35 35 35 34 32 31 30 29 28 27 25 24 22 20 19 17 16 14 14 14 14 14 14 14 14 15 15 16 16 16 16 15 16 17 17 18 18 19 21 22 23
9 9 10 10 9 5 4 7 6 4 6 9 8 13 15 2 7 4 8 12 12 12 11 7 7 10 9 8 8 8 7 7 8 8 7 7 7 8 11 14 15 17 18 19 22 26 27 28 30 31 33 37 40 39 39 38 36 35 36 34 32 31 30 29 28 27 25 24 22 20 18 17 15 15 14 14 14 14 14 14 14 15 15 15 15 15 15 15 15 16 17 18 19 19 21 22 22
Wind_Direction
97 95 43 286 271 277 246 232 251 207 232 262 225 193 168 142 80 176 175 174 205 190 168 74 168 96 108 3 307 311 358 9 1 332 307 81 119 119 113 108 95 95 95 74 67 56 38 59 63 54 59 60 62 62 60 62 63 69 72 74 66 61 62 60 60 71 79 73 68 72 70 71 67 67 69 65 64 51 37 38 40 31 20 14 10 3 357 349 344 342 340 337 332 327 325 321 314
106 175 205 263 246 254 251 194 264 221 223 255 202 178 132 137 185 203 187 181 169 127 146 131 180 215 349 350 320 285 353 53 45 73 82 116 130 125 147 131 110 101 101 83 66 65 51 58 69 60 62 67 67 68 70 69 68 74 74 77 75 69 69 67 66 67 72 76 74 71 66 65 60 70 70 71 78 56 33 27 33 38 31 26 17 8 4 357 353 352 346 343 338 329 331 332 325
159 213 208 237 223 241 283 192 260 265 251 269 159 128 136 164 193 197 177 154 100 101 139 121 154 232 245 241 258 262 222 85 92 99 106 147 146 145 171 159 133 103 113 103 72 68 60 65 79 67 64 68 70 73 73 72 74 76 76 80 81 80 76 68 66 65 65 65 65 59 54 48 38 40 36 37 48 27 7 357 355 13 11 27 31 20 16 7 359 356 352 354 347 333 335 336 334
166 227 225 240 218 225 250 216 256 280 272 285 115 130 160 185 180 156 96 98 99 121 151 150 172 114 237 234 241 300 236 109 101 92 122 157 131 136 171 161 129 108 125 108 77 70 75 105 96 80 76 75 82 84 81 80 78 77 77 79 80 81 77 71 65 61 61 58 57 54 49 42 32 20 12 5 8 3 351 348 331 330 323 325 357 11 21 19 8 358 352 358 352 336 334 334 331
169 238 239 260 248 231 261 246 258 263 276 312 351 134 168 186 165 133 96 99 109 142 160 187 195 93 250 261 308 297 131 109 113 103 113 129 125 145 170 150 126 126 124 110 95 81 105 140 110 97 97 91 99 95 92 87 80 80 79 79 81 80 78 74 71 67 64 62 54 49 41 33 25 10 8 1 4 8 2 3 343 330 322 318 319 310 321 345 358 358 351 354 347 327 324 330 335
232 225 232 263 274 334 269 253 254 246 285 333 328 100 162 181 156 134 118 112 112 130 139 196 206 104 214 236 288 332 60 111 135 126 122 138 154 164 157 140 133 135 129 122 114 107 131 143 125 114 110 109 109 104 99 92 87 84 82 83 82 82 82 80 78 76 73 71 62 48 37 20 10 3 3 4 6 11 11 7 352 338 329 321 316 310 307 309 310 318 313 310 312 306 315 320 329
256 218 202 236 232 248 253 252 264 260 41 7 326 37 165 168 143 139 141 134 140 168 186 205 188 250 209 129 192 82 84 109 114 123 142 151 164 165 147 140 140 139 139 127 123 151 159 144 139 133 124 121 112 111 103 96 90 83 82 80 78 76 73 73 71 69 66 63 58 47 36 20 13 10 7 7 7 7 7 2 354 343 336 329 320 314 311 311 310 308 304 301 303 305 311 309 309
258 255 194 240 227 206 250 258 265 272 52 57 20 6 332 152 150 157 167 170 173 179 194 199 197 248 201 140 215 114 120 111 102 127 137 149 165 164 146 143 144 140 140 132 142 168 166 153 148 148 145 141 128 123 105 95 87 77 77 68 63 58 52 51 49 46 47 45 44 40 34 28 21 19 17 15 14 11 8 5 359 351 346 341 333 325 319 314 313 311 309 307 307 307 306 304 303
234 246 222 248 247 223 246 259 258 270 193 128 139 56 353 151 169 176 183 185 168 179 193 186 194 229 113 169 217 120 153 138 120 132 137 149 159 161 146 150 156 149 148 146 161 171 173 167 160 162 162 165 161 161 149 122 82 60 48 44 34 33 28 27 28 29 32 33 34 32 31 29 24 23 21 20 17 15 10 7 2 358 356 351 345 337 330 325 320 315 309 306 305 306 305 304 303
217 227 255 253 259 252 249 254 248 260 161 150 151 168 178 169 182 191 194 194 177 177 180 171 199 228 275 271 216 117 156 148 140 143 144 151 153 158 153 158 160 157 162 164 173 179 183 180 177 180 177 181 181 186 192 192 199 213 347 8 8 19 18 21 26 28 32 33 34 32 32 31 27 24 21 19 14 12 7 2 357 353 353 352 348 341 336 331 327 321 315 311 307 306 306 306 306
223 203 251 265 252 253 257 267 259 235 131 163 180 174 180 179 189 198 201 201 184 172 150 151 205 232 250 267 235 113 144 153 157 156 153 159 156 155 158 167 166 168 177 177 179 180 185 190 194 195 189 190 190 193 190 188 188 177 188 39 34 43 46 46 45 42 44 42 41 39 38 37 34 30 26 24 18 15 10 3 359 353 353 350 347 343 341 337 332 328 323 320 316 313 311 310 310
243 202 210 252 256 264 288 306 302 313 163 201 201 176 180 187 192 201 204 203 186 186 177 174 199 235 232 252 199 129 151 166 167 160 159 163 160 156 161 172 175 178 183 180 179 181 186 192 196 198 197 196 193 194 182 170 157 139 133 113 91 78 67 63 60 58 57 54 54 51 48 47 43 40 36 33 29 26 20 15 11 7 5 360 357 353 349 346 341 337 333 329 326 322 320 316 313
250 256 235 252 272 286 300 304 304 308 269 235 204 168 174 190 201 210 206 208 201 206 200 186 176 291 239 260 116 149 169 174 168 160 161 162 162 161 157 170 181 183 183 181 183 186 186 188 195 193 188 190 187 188 181 163 142 126 114 102 92 83 74 69 65 63 63 62 61 59 59 57 53 49 45 41 37 34 29 25 21 19 16 11 8 4 359 356 351 347 343 338 335 331 327 323 319
256 285 270 266 275 278 282 281 286 292 277 213 149 151 176 199 211 219 213 222 214 206 176 172 174 216 256 252 154 176 176 170 165 158 160 160 160 161 158 172 182 183 182 181 184 188 182 181 188 185 177 177 174 173 173 154 129 110 93 85 80 76 72 67 63 60 58 56 55 54 54 53 50 46 42 40 36 34 30 27 25 23 20 18 15 12 10 5 2 358 354 349 345 341 336 331 326
265 279 264 267 272 268 251 261 287 286 288 107 134 154 183 205 214 224 225 234 221 103 87 138 182 190 272 232 194 113 158 161 159 156 157 156 156 158 161 175 182 183 182 178 180 183 179 179 181 177 172 170 168 171 173 148 120 93 77 70 63 60 57 54 53 51 50 49 48 47 47 46 43 38 34 31 29 28 26 23 22 22 19 17 15 14 13 10 8 5 3 360 356 352 349 343 337
261 276 246 257 266 268 212 236 281 271 294 101 146 164 188 200 197 222 240 284 298 104 170 178 190 219 320 220 43 73 148 154 154 155 154 154 158 163 169 177 181 185 186 182 183 182 179 180 178 178 175 175 177 178 175 154 136 108 83 68 59 53 48 47 46 44 44 44 43 43 43 42 38 34 30 25 24 22 21 19 17 17 15 13 11 10 10 8 8 5 4 2 359 358 355 352 351
244 249 244 253 253 262 216 231 261 288 335 101 157 178 202 204 182 215 15 295 261 198 203 214 198 225 288 115 88 130 146 149 153 155 158 162 167 173 180 184 182 187 193 189 188 191 190 186 181 185 184 183 184 180 174 159 147 123 101 79 66 58 51 50 47 42 40 38 33 36 36 34 32 30 25 22 22 19 19 15 12 13 10 9 8 7 6 6 5 3 3 1 359 359 358 360 357
225 230 243 255 259 270 326 275 284 314 304 160 166 190 219 217 177 179 169 238 244 237 227 228 218 222 209 127 126 151 148 153 160 164 169 173 179 184 186 190 189 189 191 191 192 194 193 191 189 190 189 186 185 181 176 165 153 132 118 103 82 65 55 50 45 39 35 31 27 31 30 25 26 24 19 16 16 16 17 13 9 9 8 8 5 3 5 5 3 1 2 359 359 0 2 3 356
234 250 254 257 273 308 2 292 285 290 289 281 181 202 225 232 179 162 206 228 225 233 236 226 227 229 202 160 155 159 157 165 170 176 180 182 188 190 190 190 193 192 189 190 190 191 194 195 191 192 194 187 182 181 177 171 160 147 135 106 69 45 43 46 41 36 31 28 28 33 28 21 26 20 12 14 16 15 12 9 10 10 8 8 5 5 6 3 2 2 2 1 1 2 2 1 354
236 250 258 266 316 307 281 263 263 275 280 268 248 208 220 236 182 154 215 240 226 226 231 220 225 229 213 182 168 169 170 177 181 187 189 191 194 194 196 192 193 194 190 188 186 189 192 193 191 195 196 185 181 181 176 172 166 157 153 127 87 38 31 38 34 33 30 28 31 34 25 21 29 19 11 16 18 17 12 10 12 11 9 7 7 9 6 2 3 3 2 2 3 1 359 357 353
212 220 262 309 15 304 283 232 258 262 258 265 258 213 227 228 194 188 221 245 240 233 229 226 224 226 217 186 174 178 179 184 188 194 195 197 198 199 201 197 195 194 188 185 184 189 190 191 195 197 194 187 184 179 174 179 172 161 166 161 143 127 43 42 30 29 27 27 31 30 23 21 26 17 11 16 17 17 15 13 12 9 9 6 6 9 5 2 4 3 1 1 1 358 356 354 351
245 232 259 299 309 284 305 93 273 226 235 260 242 230 235 204 201 218 226 237 245 246 237 234 227 235 227 180 174 181 184 191 192 197 200 200 201 201 203 199 196 192 186 185 184 189 190 192 198 197 194 190 184 176 180 186 174 166 182 179 159 165 113 73 51 36 23 26 28 28 27 22 22 13 8 12 14 14 11 11 10 5 6 5 4 4 1 2 2 1 360 358 358 356 355 352 349
254 244 245 258 257 259 287 81 136 213 236 237 233 246 229 206 230 228 226 236 243 258 30 246 235 250 224 164 170 183 187 196 195 199 201 201 202 201 202 198 195 191 186 187 184 186 189 190 196 197 195 193 187 183 185 185 178 181 193 185 172 176 159 128 103 48 17 20 22 21 24 21 18 10 4 7 9 9 6 7 8 2 2 0 1 0 356 359 359 357 357 355 355 354 353 352 348
242 263 250 235 237 244 256 121 168 221 240 241 267 292 236 232 249 241 233 238 243 246 203 171 225 238 172 159 174 187 191 197 199 202 202 202 203 201 201 199 197 192 185 187 182 184 187 188 195 195 193 195 192 188 183 183 188 192 194 187 186 185 168 170 182 64 15 6 10 12 15 16 11 1 358 2 3 3 1 4 6 359 358 356 356 356 351 353 354 352 351 350 351 349 349 349 341
224 253 258 215 219 243 244 211 212 227 237 250 270 257 247 245 267 269 248 246 245 245 231 191 190 195 183 183 187 190 196 200 202 203 203 206 206 203 203 202 199 193 188 187 181 183 187 188 194 193 191 193 192 187 179 182 193 194 189 188 195 190 181 192 194 128 48 345 351 0 5 7 2 355 353 356 358 358 357 360 1 355 354 350 349 349 344 346 347 345 345 345 346 345 345 344 338
223 251 268 232 240 244 229 228 230 223 226 225 234 246 250 250 299 274 254 250 248 241 239 219 198 205 203 202 199 196 200 201 202 202 203 205 203 203 204 202 201 198 191 186 182 183 186 188 190 189 189 188 186 186 179 184 193 193 192 193 196 191 193 198 184 174 196 285 325 344 353 356 355 351 348 351 353 352 353 354 354 351 349 340 339 340 334 339 341 336 337 339 340 339 337 337 334
314 278 282 262 259 251 224 237 232 215 233 219 224 250 254 214 166 261 253 246 242 231 233 226 210 219 216 212 209 203 204 204 201 199 200 201 202 204 203 202 203 200 192 187 185 182 183 188 188 184 184 187 188 186 182 185 189 192 195 194 194 194 197 192 184 199 214 247 288 325 340 348 351 344 341 345 346 346 346 346 348 344 338 330 330 329 331 339 338 328 330 335 337 334 330 327 324
326 302 290 267 254 247 230 236 228 210 231 212 223 258 255 215 207 247 242 139 198 211 219 220 216 226 222 219 215 206 210 207 201 197 198 200 201 201 201 202 201 198 193 189 185 181 184 188 188 182 182 193 191 185 186 184 186 193 192 191 198 199 194 189 192 204 219 248 272 305 326 341 341 332 332 335 339 340 338 339 342 336 325 321 326 330 336 341 335 324 327 334 337 332 328 324 317
293 290 283 272 253 245 232 227 216 205 207 172 206 270 247 219 224 245 239 175 180 202 217 219 218 225 222 221 216 211 211 206 201 200 203 203 200 199 201 201 197 195 194 190 184 182 187 185 183 180 185 197 191 184 191 187 190 195 189 191 201 198 192 193 199 208 219 243 265 286 309 324 322 319 322 327 332 333 333 335 334 329 318 318 330 337 337 335 328 323 328 334 333 327 324 320 314
277 252 261 277 271 255 224 207 187 189 191 145 183 273 255 216 222 241 234 179 187 207 222 226 224 223 220 219 215 214 211 205 205 204 206 205 202 200 202 201 196 194 191 188 185 183 188 186 182 181 187 196 189 183 189 187 192 194 188 195 201 194 195 200 202 214 219 233 261 276 291 304 305 309 314 319 325 327 331 331 327 324 315 321 335 337 330 332 326 321 328 330 326 321 316 312 309
254 249 240 252 266 265 181 168 167 179 177 153 187 259 272 255 237 234 204 171 192 215 224 228 229 221 215 216 214 216 212 209 211 208 206 205 204 202 202 200 196 194 189 186 186 182 187 190 187 187 189 193 190 184 185 189 193 192 190 196 201 195 196 202 206 219 222 224 250 269 280 290 295 300 305 311 317 323 326 326 324 317 314 325 334 331 329 332 323 316 324 325 320 317 310 307 306
226 247 256 240 242 244 179 173 184 191 162 173 194 240 265 277 276 205 158 172 200 223 233 231 236 229 215 213 213 217 215 213 213 210 208 206 205 202 201 200 194 192 191 185 184 180 182 190 193 193 193 191 191 190 189 194 195 194 192 195 202 200 199 205 209 218 222 224 236 258 273 278 283 289 296 303 311 319 321 322 319 311 315 326 330 328 329 326 315 314 321 323 318 314 310 308 306
224 226 260 260 252 257 220 175 196 203 144 179 208 248 268 271 282 119 139 185 204 228 241 239 245 241 223 215 211 215 215 213 213 209 208 207 205 204 201 199 195 193 192 185 182 181 180 188 196 196 195 193 194 196 197 198 198 196 195 199 205 205 204 206 212 219 220 227 232 242 259 268 274 281 289 300 308 315 319 318 315 312 316 323 324 325 323 314 308 310 315 320 315 311 308 306 306
247 227 250 262 263 268 253 190 198 196 182 206 216 236 258 262 262 239 193 191 207 232 244 247 254 251 237 224 212 213 212 210 210 204 204 204 203 203 200 198 196 192 191 187 184 185 181 187 197 197 196 196 194 197 201 199 199 199 198 203 208 208 208 207 212 221 221 226 230 234 249 262 271 278 288 297 306 312 317 316 313 311 311 316 319 317 311 303 300 301 307 313 310 306 302 302 305
278 274 266 273 272 266 263 262 167 176 200 230 226 232 251 260 265 264 249 220 220 235 246 252 255 253 248 236 224 217 210 212 209 199 199 200 199 199 197 196 194 190 190 188 183 184 182 185 196 196 194 195 190 194 200 197 197 199 197 202 208 209 212 212 215 220 221 224 228 237 248 258 266 276 288 295 303 309 313 311 305 302 303 310 311 304 301 298 296 298 304 307 306 303 299 299 301
281 285 281 282 283 271 270 276 146 179 206 228 234 243 254 261 263 265 265 254 243 244 248 252 254 254 250 242 236 225 217 217 205 194 194 194 196 194 192 192 190 188 189 186 182 181 180 183 192 192 191 191 184 187 195 191 189 192 190 196 204 207 209 213 220 222 222 226 232 240 248 254 260 272 285 291 299 302 304 302 298 297 299 302 300 293 292 291 294 300 304 307 307 305 302 299 301
277 278 277 274 273 272 272 266 144 187 223 239 246 251 257 263 265 266 269 267 264 261 256 253 253 253 247 242 240 229 225 218 189 189 189 188 191 188 187 188 185 186 188 186 183 181 182 185 189 189 189 188 183 185 190 188 186 187 188 192 197 202 201 204 217 223 223 226 233 242 248 253 259 269 279 286 292 293 296 296 294 295 292 290 289 284 285 289 293 298 303 307 305 303 302 302 306
267 266 271 272 265 267 272 215 140 181 217 253 260 262 262 264 266 268 268 264 262 263 261 258 258 259 251 244 241 232 225 202 175 184 186 183 185 183 183 184 184 185 187 188 186 184 184 186 188 189 188 186 186 189 191 190 191 190 190 191 190 190 193 197 208 219 225 227 233 243 248 252 260 269 276 281 283 283 288 289 287 287 286 284 282 281 285 288 291 295 301 304 303 299 297 301 310
263 259 259 264 263 268 270 117 134 180 204 264 270 271 270 268 267 265 261 256 253 256 259 260 265 266 258 248 244 233 214 190 180 186 185 182 180 178 180 184 186 187 187 189 188 185 184 185 186 186 186 187 189 192 193 192 190 189 187 185 184 180 187 196 197 202 217 226 235 244 248 251 258 266 272 276 278 280 284 285 285 286 287 283 280 283 285 286 288 293 297 299 301 298 295 300 310
245 243 247 253 255 266 266 151 152 197 215 271 286 279 271 267 262 255 251 249 246 251 257 260 263 262 259 255 250 234 212 192 188 193 188 183 179 178 182 184 186 188 188 190 189 186 186 186 186 184 186 189 190 193 195 190 186 186 184 183 183 180 185 201 205 210 221 229 236 244 248 250 254 259 265 271 274 278 282 283 284 285 286 282 278 281 281 282 285 288 292 293 295 298 299 302 305
232 225 235 248 251 258 265 304 339 252 234 250 289 283 265 253 246 239 240 240 238 246 254 261 260 254 251 251 246 232 216 197 192 198 191 185 183 183 186 185 185 188 191 191 189 188 188 187 186 184 187 190 192 195 194 187 187 190 189 189 191 191 195 204 211 217 225 231 235 239 245 249 252 256 261 267 271 275 278 280 283 284 284 281 276 275 277 281 283 285 289 290 288 293 297 299 300
243 222 228 244 258 265 269 321 353 296 265 181 298 295 277 230 224 224 172 160 217 228 239 250 259 260 243 230 231 221 209 203 201 201 192 187 186 185 187 187 188 192 194 192 189 189 187 186 186 185 188 191 193 197 196 191 193 194 192 190 191 193 199 205 209 210 212 222 229 232 239 247 252 257 262 266 269 272 276 279 282 283 282 279 274 272 275 279 282 282 283 283 284 286 290 293 294
254 232 236 246 259 267 271 293 307 283 283 220 91 310 293 256 216 222 169 165 204 205 225 235 244 264 252 213 201 202 199 199 204 204 193 186 184 185 188 190 192 193 193 190 187 189 187 185 185 185 188 190 193 197 198 196 195 194 195 196 194 194 198 204 206 202 195 199 209 219 232 245 253 258 262 264 267 270 274 278 281 281 279 275 270 269 272 276 276 276 276 277 280 281 280 281 286
255 21 5 258 254 262 262 273 257 263 293 275 176 208 278 276 232 209 201 205 223 230 243 245 234 243 253 242 180 182 195 189 192 200 193 188 185 187 190 191 192 192 189 186 185 188 188 186 186 186 188 191 195 199 198 198 196 193 195 196 196 198 198 194 188 187 191 197 206 221 233 243 253 258 261 262 264 269 271 275 278 276 274 269 265 267 269 270 271 274 279 276 274 275 272 273 280
269 57 40 62 59 271 230 245 257 273 295 275 189 171 247 277 249 195 208 219 227 232 240 250 246 230 244 257 209 172 189 185 186 194 191 190 189 190 191 188 189 189 186 186 186 186 186 186 185 186 189 191 196 199 198 199 198 196 197 194 193 195 193 185 178 187 203 213 221 230 235 240 248 256 262 263 263 266 269 273 275 273 271 266 262 265 266 270 275 279 282 279 274 272 270 271 274
140 109 86 78 88 92 145 241 273 282 274 260 187 165 219 278 263 182 198 212 214 224 228 237 247 230 230 254 238 164 176 185 188 193 190 189 189 189 188 185 185 186 186 186 185 184 185 186 185 188 188 190 197 199 198 200 199 198 198 194 192 191 188 189 187 194 207 217 225 232 237 239 239 242 251 258 260 265 270 273 273 272 274 269 264 269 272 277 281 279 278 278 274 272 270 268 267
139 147 121 119 190 182 199 237 261 271 266 245 179 175 206 270 263 157 176 202 200 200 205 224 239 225 215 240 239 171 168 178 185 191 188 183 183 183 183 184 184 183 183 183 183 185 187 188 188 189 189 191 198 200 199 200 199 199 198 196 197 193 188 191 190 195 205 211 218 226 234 235 231 231 236 245 254 263 270 275 278 281 284 278 273 273 272 273 276 273 272 272 270 268 267 266 266
168 176 195 231 225 200 214 210 167 241 264 220 169 182 201 232 231 154 178 198 196 183 186 242 248 229 216 217 207 171 166 174 178 184 182 175 177 179 181 185 183 180 180 181 183 186 188 189 188 189 189 192 197 199 199 199 199 200 200 200 201 197 194 196 194 195 203 208 209 214 223 227 231 238 243 248 252 260 269 277 283 284 282 276 269 267 268 272 274 273 271 270 269 267 265 266 266
202 194 193 238 247 228 232 216 192 232 254 115 156 186 211 234 243 223 208 196 198 194 211 256 257 247 234 196 157 151 160 172 175 178 179 175 177 179 182 185 183 182 183 183 185 185 187 189 189 190 191 189 193 197 198 197 198 201 200 201 202 200 200 202 201 200 203 206 206 209 216 221 228 235 238 241 245 252 263 271 277 273 270 270 268 270 276 281 280 276 271 270 272 270 268 267 266
193 191 182 206 233 249 252 245 240 244 242 128 137 187 242 258 246 222 225 217 204 207 224 236 239 241 233 170 136 146 160 172 177 178 182 182 183 182 182 184 185 186 185 185 186 186 187 189 190 192 191 187 190 195 195 194 197 199 200 201 202 202 202 203 205 205 203 203 205 210 215 219 224 229 235 240 243 252 262 270 275 274 276 281 281 283 285 286 286 280 274 276 278 276 273 272 270
192 194 196 216 230 243 250 259 262 272 298 230 163 183 248 275 220 196 214 222 210 212 223 216 224 231 215 134 141 163 171 181 182 184 190 189 187 183 181 185 189 189 186 186 187 186 186 190 192 193 191 188 190 194 192 191 194 195 198 200 201 202 204 205 207 207 207 208 211 213 218 225 230 234 242 248 252 261 270 276 280 282 284 287 287 287 286 286 288 281 273 277 281 281 279 275 272
190 179 209 233 235 228 246 282 286 317 315 271 186 215 246 261 259 187 195 214 206 210 219 213 226 224 190 166 190 181 177 185 184 189 195 192 187 185 184 187 190 188 186 187 187 187 189 191 192 193 191 188 190 194 191 189 192 194 197 200 200 202 203 203 205 208 208 211 215 217 222 230 236 239 245 252 258 266 272 277 280 281 283 285 284 284 282 282 283 276 274 279 282 284 282 276 275
164 175 206 224 0 234 243 277 300 117 281 269 217 246 258 266 261 190 172 200 202 204 210 211 225 220 196 212 209 181 180 184 186 190 190 187 186 190 190 189 191 188 186 189 190 190 192 191 190 191 190 187 188 193 191 188 190 194 196 197 199 200 202 202 204 206 207 212 217 221 225 231 236 240 245 253 260 266 271 274 278 279 280 281 279 279 282 284 285 281 280 282 283 285 281 275 275
143 190 206 100 50 331 242 262 282 247 266 272 262 267 270 274 270 176 173 198 199 200 207 209 219 213 209 225 216 193 186 179 185 189 188 190 189 194 195 193 196 193 189 191 191 192 194 192 189 188 187 187 188 191 192 190 191 193 194 195 197 199 201 202 203 204 208 213 218 222 228 232 236 240 245 254 261 267 271 273 276 278 277 276 277 281 285 285 286 286 286 285 283 282 278 275 273
137 282 284 88 221 204 197 220 248 249 257 271 275 278 273 260 259 179 181 195 194 198 205 210 215 210 212 224 222 208 184 172 188 191 190 195 194 197 197 195 198 197 193 191 190 192 193 192 192 189 188 190 191 191 192 192 192 192 192 193 196 199 200 202 203 205 209 213 218 222 227 230 233 239 244 252 259 263 267 267 267 269 268 269 277 287 290 286 283 284 285 284 281 277 275 274 272
300 290 266 236 257 223 199 203 220 238 247 270 282 284 276 251 238 191 179 187 196 202 203 206 211 212 214 217 221 214 187 179 191 192 194 197 198 201 198 198 199 197 194 190 190 193 192 191 193 191 189 191 192 192 191 191 191 192 191 191 195 197 199 202 204 207 210 214 219 221 224 228 231 236 243 249 253 255 256 255 255 259 262 267 277 287 290 287 284 283 281 278 276 274 272 271 271
183 226 219 200 204 277 276 236 226 234 242 254 270 276 274 264 140 181 179 183 197 200 196 199 202 210 216 210 212 215 202 195 193 194 198 193 194 197 195 198 198 195 196 193 193 194 192 192 194 190 188 190 191 191 191 190 190 191 190 190 192 195 198 201 204 207 210 214 217 218 221 226 228 234 241 244 245 246 246 247 251 257 262 269 277 284 286 283 280 280 277 273 272 271 270 270 270
182 195 199 198 189 184 235 239 224 214 235 240 243 263 270 263 99 151 179 177 196 197 185 186 197 205 210 205 210 215 211 209 204 201 200 188 185 183 183 189 189 189 193 190 191 194 191 191 192 189 190 192 191 191 191 190 189 190 190 190 191 194 197 200 202 205 208 211 214 216 219 222 227 234 238 239 240 238 238 244 252 257 263 271 277 282 283 280 276 275 273 270 269 269 269 269 270